AGUSAN UGTB-URFF

Flight info

Callsign AGUSAN
Flight time N/A
Altitude FL400
Route DF DCT TAGAR L850 BANUT A277 LAMET R230 OLENA
Aircraft C750/M-L/C

Departure

Time 2026-04-20 13:04
Airport Tbilisi International Airport (UGTB)

Arrival

Time N/A
Airport URFF
Time Latitude Longitude Altitude Speed Heading
2026-04-20 12:48 41.67002 44.96166 1576 ft 0 kts 43°
2026-04-20 12:55 41.66997 44.96161 1573 ft 1 kts 42°
2026-04-20 12:55 41.66993 44.96156 1573 ft 1 kts 41°
2026-04-20 12:55 41.66989 44.96151 1572 ft 2 kts 48°
2026-04-20 12:56 41.66978 44.96137 1571 ft 2 kts 43°
2026-04-20 12:56 41.66967 44.96123 1571 ft 2 kts 44°
2026-04-20 12:56 41.66958 44.96108 1570 ft 2 kts 69°
2026-04-20 12:56 41.66957 44.96088 1569 ft 2 kts 107°
2026-04-20 12:57 41.66963 44.96075 1569 ft 1 kts 136°
2026-04-20 12:57 41.66965 44.96073 1570 ft 0 kts 136°
2026-04-20 13:00 41.66963 44.96075 1569 ft 3 kts 137°
2026-04-20 13:00 41.66944 44.96100 1569 ft 9 kts 134°
2026-04-20 13:00 41.66881 44.96193 1567 ft 18 kts 132°
2026-04-20 13:01 41.66841 44.96251 1567 ft 20 kts 132°
2026-04-20 13:01 41.66764 44.96359 1566 ft 21 kts 135°
2026-04-20 13:01 41.66631 44.96411 1559 ft 23 kts 194°
2026-04-20 13:02 41.66463 44.96354 1548 ft 26 kts 192°
2026-04-20 13:02 41.66275 44.96299 1536 ft 29 kts 186°
2026-04-20 13:02 41.66089 44.96411 1526 ft 32 kts 141°
2026-04-20 13:02 41.65916 44.96607 1510 ft 34 kts 181°
2026-04-20 13:03 41.65890 44.96405 1513 ft 26 kts 317°
2026-04-20 13:03 41.66014 44.96250 1521 ft 38 kts 317°
2026-04-20 13:03 41.66456 44.95691 1532 ft 134 kts 316°
2026-04-20 13:03 41.67286 44.94630 1761 ft 187 kts 317°
2026-04-20 13:04 41.68312 44.93360 2533 ft 221 kts 316°
2026-04-20 13:04 41.69340 44.91904 3851 ft 218 kts 311°
2026-04-20 13:04 41.70329 44.90486 5141 ft 212 kts 315°
2026-04-20 13:04 41.71286 44.88960 6058 ft 226 kts 309°
2026-04-20 13:05 41.72301 44.87322 6976 ft 240 kts 311°
2026-04-20 13:05 41.73397 44.85595 7863 ft 254 kts 310°
2026-04-20 13:05 41.74558 44.83755 8736 ft 269 kts 310°
2026-04-20 13:05 41.75780 44.81820 9648 ft 281 kts 309°
2026-04-20 13:06 41.77039 44.79827 10612 ft 290 kts 309°
2026-04-20 13:06 41.78370 44.77718 11384 ft 304 kts 309°
2026-04-20 13:06 41.79745 44.75539 12273 ft 313 kts 308°
2026-04-20 13:06 41.81142 44.73320 13283 ft 317 kts 308°
2026-04-20 13:07 41.82553 44.71082 14260 ft 320 kts 307°
2026-04-20 13:07 41.83987 44.68797 15139 ft 326 kts 307°
2026-04-20 13:07 41.85448 44.66477 16021 ft 331 kts 307°
2026-04-20 13:07 41.86928 44.64120 16855 ft 336 kts 307°
2026-04-20 13:08 41.88443 44.61706 17647 ft 341 kts 306°
2026-04-20 13:08 41.89969 44.59272 18439 ft 346 kts 306°
2026-04-20 13:08 41.91383 44.56687 19204 ft 347 kts 297°
2026-04-20 13:08 41.92447 44.53811 19948 ft 347 kts 288°
2026-04-20 13:09 41.93152 44.50749 20718 ft 347 kts 282°
2026-04-20 13:09 41.93899 44.47666 21459 ft 352 kts 284°
2026-04-20 13:09 41.94659 44.44554 22205 ft 355 kts 284°
2026-04-20 13:09 41.95447 44.41397 22913 ft 358 kts 283°
2026-04-20 13:10 41.96232 44.38235 23583 ft 361 kts 283°
2026-04-20 13:10 41.97023 44.35041 24236 ft 365 kts 283°
2026-04-20 13:10 41.97819 44.31809 24877 ft 369 kts 282°
2026-04-20 13:10 41.98624 44.28542 25481 ft 373 kts 282°
2026-04-20 13:11 41.99438 44.25244 26085 ft 377 kts 282°
2026-04-20 13:11 42.00257 44.21906 26659 ft 380 kts 282°
2026-04-20 13:11 42.01092 44.18516 27219 ft 385 kts 282°
2026-04-20 13:11 42.01930 44.15104 27777 ft 388 kts 282°
2026-04-20 13:12 42.02775 44.11657 28339 ft 391 kts 282°
2026-04-20 13:12 42.03624 44.08175 28907 ft 394 kts 281°
2026-04-20 13:12 42.04486 44.04652 29375 ft 398 kts 281°
2026-04-20 13:12 42.05351 44.01103 29844 ft 403 kts 281°
2026-04-20 13:13 42.06223 43.97538 30351 ft 406 kts 281°
2026-04-20 13:13 42.07103 43.93903 30795 ft 410 kts 281°
2026-04-20 13:13 42.07987 43.90257 31206 ft 413 kts 281°
2026-04-20 13:13 42.08873 43.86601 31735 ft 414 kts 281°
2026-04-20 13:14 42.09759 43.82935 32160 ft 416 kts 281°
2026-04-20 13:14 42.10653 43.79232 32588 ft 418 kts 281°
2026-04-20 13:14 42.11548 43.75520 32987 ft 420 kts 282°
2026-04-20 13:14 42.12445 43.71797 33402 ft 422 kts 282°
2026-04-20 13:15 42.13354 43.68021 33794 ft 424 kts 282°
2026-04-20 13:15 42.14258 43.64254 34117 ft 427 kts 282°
2026-04-20 13:15 42.15169 43.60456 34444 ft 430 kts 282°
2026-04-20 13:15 42.16080 43.56652 34857 ft 429 kts 282°
2026-04-20 13:16 42.16987 43.52854 35202 ft 428 kts 282°
2026-04-20 13:16 42.17892 43.49063 35552 ft 428 kts 282°
2026-04-20 13:16 42.18794 43.45270 35866 ft 427 kts 282°
2026-04-20 13:16 42.19702 43.41453 36162 ft 428 kts 282°
2026-04-20 13:17 42.20603 43.37659 36485 ft 427 kts 282°
2026-04-20 13:17 42.21500 43.33874 36779 ft 426 kts 282°
2026-04-20 13:17 42.22392 43.30094 37047 ft 426 kts 282°
2026-04-20 13:17 42.23287 43.26306 37303 ft 427 kts 282°
2026-04-20 13:18 42.24183 43.22514 37543 ft 427 kts 282°
2026-04-20 13:18 42.25075 43.18712 37784 ft 428 kts 282°
2026-04-20 13:18 42.25976 43.14878 37991 ft 429 kts 282°
2026-04-20 13:18 42.26872 43.11060 38230 ft 429 kts 283°
2026-04-20 13:19 42.27764 43.07254 38488 ft 428 kts 283°
2026-04-20 13:19 42.28680 43.03446 38717 ft 429 kts 283°
2026-04-20 13:19 42.29628 42.99650 38933 ft 430 kts 284°
2026-04-20 13:19 42.30569 42.95837 39160 ft 431 kts 284°
2026-04-20 13:20 42.31506 42.92019 39383 ft 431 kts 284°
2026-04-20 13:20 42.32450 42.88169 39614 ft 431 kts 284°
2026-04-20 13:20 42.33386 42.84347 39850 ft 431 kts 284°
2026-04-20 13:20 42.34317 42.80526 40018 ft 433 kts 284°
2026-04-20 13:21 42.35259 42.76664 40037 ft 438 kts 284°
2026-04-20 13:21 42.37172 42.68797 40046 ft 449 kts 284°
2026-04-20 13:22 42.39134 42.60706 40046 ft 459 kts 284°
2026-04-20 13:22 42.41123 42.52455 40046 ft 469 kts 284°
2026-04-20 13:23 42.43152 42.44032 40048 ft 478 kts 284°
2026-04-20 13:23 42.45209 42.35450 40049 ft 486 kts 284°
2026-04-20 13:24 42.47299 42.26688 40064 ft 494 kts 284°
2026-04-20 13:24 42.49404 42.17843 40059 ft 499 kts 284°
2026-04-20 13:25 42.51517 42.08924 40064 ft 501 kts 284°
2026-04-20 13:25 42.53638 41.99938 40060 ft 502 kts 284°
2026-04-20 13:26 42.55746 41.90967 40064 ft 503 kts 284°
2026-04-20 13:26 42.57849 41.81982 40060 ft 503 kts 284°
2026-04-20 13:27 42.59945 41.72992 40060 ft 503 kts 284°
2026-04-20 13:27 42.62043 41.63950 40049 ft 503 kts 284°
2026-04-20 13:28 42.64125 41.54954 40045 ft 503 kts 284°
2026-04-20 13:28 42.66201 41.45936 40044 ft 503 kts 284°
2026-04-20 13:29 42.68279 41.36885 40041 ft 503 kts 284°
2026-04-20 13:29 42.70339 41.27864 40051 ft 503 kts 284°
2026-04-20 13:30 42.72393 41.18829 40050 ft 503 kts 284°
2026-04-20 13:30 42.74443 41.09783 40054 ft 504 kts 284°
2026-04-20 13:31 42.76497 41.00685 40052 ft 504 kts 284°
2026-04-20 13:31 42.78535 40.91614 40057 ft 505 kts 284°
2026-04-20 13:32 42.80566 40.82534 40056 ft 504 kts 284°
2026-04-20 13:32 42.82599 40.73415 40054 ft 504 kts 284°
2026-04-20 13:33 42.84613 40.64331 40056 ft 504 kts 284°
2026-04-20 13:33 42.86621 40.55250 40055 ft 503 kts 284°
2026-04-20 13:34 42.88619 40.46165 40055 ft 503 kts 284°
2026-04-20 13:34 42.90617 40.37050 40053 ft 503 kts 284°
2026-04-20 13:35 42.92605 40.27940 40053 ft 504 kts 284°
2026-04-20 13:35 42.94584 40.18832 40057 ft 504 kts 284°
2026-04-20 13:36 42.96558 40.09692 40056 ft 503 kts 284°
2026-04-20 13:36 42.98528 40.00583 40055 ft 503 kts 285°
2026-04-20 13:37 43.01443 39.91930 40060 ft 509 kts 299°
2026-04-20 13:37 43.04980 39.83634 40061 ft 508 kts 297°
2026-04-20 13:38 43.08410 39.75210 40052 ft 508 kts 296°
2026-04-20 13:38 43.11813 39.66799 40048 ft 508 kts 296°
2026-04-20 13:39 43.15209 39.58385 40043 ft 508 kts 296°
2026-04-20 13:39 43.18604 39.49938 40051 ft 507 kts 296°
2026-04-20 13:40 43.21980 39.41517 40045 ft 507 kts 296°
2026-04-20 13:40 43.25348 39.33091 40046 ft 506 kts 296°
2026-04-20 13:41 43.28709 39.24667 40058 ft 506 kts 296°
2026-04-20 13:41 43.32071 39.16202 40053 ft 506 kts 296°
2026-04-20 13:42 43.35406 39.07762 40049 ft 505 kts 295°
2026-04-20 13:42 43.40621 38.95266 40055 ft 505 kts 297°
2026-04-20 13:43 43.44087 38.86887 40053 ft 505 kts 297°
2026-04-20 13:43 43.47533 38.78529 40053 ft 505 kts 297°
2026-04-20 13:44 43.50972 38.70163 40053 ft 505 kts 297°
2026-04-20 13:44 43.54418 38.61757 40052 ft 505 kts 297°
2026-04-20 13:45 43.57847 38.53368 40052 ft 505 kts 297°
2026-04-20 13:45 43.61250 38.44970 40052 ft 504 kts 297°
2026-04-20 13:46 43.64644 38.36554 40051 ft 504 kts 297°
2026-04-20 13:46 43.68037 38.28115 40055 ft 504 kts 297°
2026-04-20 13:47 43.71411 38.19703 40056 ft 503 kts 297°
2026-04-20 13:47 43.74775 38.11288 40055 ft 503 kts 297°
2026-04-20 13:48 43.78146 38.02831 40056 ft 503 kts 297°
2026-04-20 13:48 43.81507 37.94414 40055 ft 502 kts 297°
2026-04-20 13:49 43.84860 37.85993 40053 ft 502 kts 297°
2026-04-20 13:49 43.88203 37.77567 40052 ft 502 kts 297°
2026-04-20 13:50 43.91554 37.69103 40052 ft 502 kts 297°
2026-04-20 13:50 43.94886 37.60659 40053 ft 502 kts 297°